BVL7439 LBWN-LIBD

Flight info

Callsign BVL7439
Flight time 1h 24m
Altitude 34000
Route DICXA T343 BLO T214 LETNI DCT BONZI DCT CRAYE/N0452F330 DCT ENOXA
Aircraft A320/M-SDE3FGHIRWY/LB1

Departure

Time 2026-04-21 12:48
Airport Varna Airport (LBWN)

Arrival

Time 2026-04-21 14:12
Airport Bari Karol Wojtyła International Airport (LIBD)
Time Latitude Longitude Altitude Speed Heading
2026-04-21 12:08 43.23523 27.82496 222 ft 0 kts
2026-04-21 12:19 43.23522 27.82496 222 ft 0 kts
2026-04-21 12:30 43.23523 27.82496 222 ft 1 kts
2026-04-21 12:30 43.23531 27.82497 222 ft 0 kts
2026-04-21 12:42 43.23554 27.82504 222 ft 19 kts 17°
2026-04-21 12:42 43.23561 27.82668 222 ft 20 kts 98°
2026-04-21 12:43 43.23550 27.82878 222 ft 23 kts 86°
2026-04-21 12:43 43.23548 27.83099 222 ft 23 kts 94°
2026-04-21 12:43 43.23522 27.83308 224 ft 20 kts 136°
2026-04-21 12:43 43.23394 27.83347 222 ft 18 kts 139°
2026-04-21 12:44 43.23357 27.83514 222 ft 19 kts 99°
2026-04-21 12:44 43.23343 27.83702 222 ft 20 kts 96°
2026-04-21 12:44 43.23327 27.83898 222 ft 21 kts 97°
2026-04-21 12:44 43.23266 27.84069 222 ft 21 kts 150°
2026-04-21 12:45 43.23168 27.84090 222 ft 2 kts 193°
2026-04-21 12:45 43.23166 27.84089 222 ft 0 kts 193°
2026-04-21 12:45 43.23158 27.84087 222 ft 5 kts 193°
2026-04-21 12:45 43.23096 27.84028 222 ft 13 kts 214°
2026-04-21 12:46 43.23069 27.83955 222 ft 1 kts 276°
2026-04-21 12:47 43.23070 27.83937 222 ft 17 kts 277°
2026-04-21 12:47 43.23119 27.83376 223 ft 98 kts 277°
2026-04-21 12:47 43.23229 27.82146 226 ft 159 kts 277°
2026-04-21 12:47 43.23372 27.80573 810 ft 164 kts 276°
2026-04-21 12:48 43.23484 27.79013 1601 ft 165 kts 266°
2026-04-21 12:48 43.23210 27.77481 2241 ft 171 kts 251°
2026-04-21 12:48 43.22846 27.75822 2529 ft 193 kts 256°
2026-04-21 12:48 43.22497 27.73959 2775 ft 215 kts 256°
2026-04-21 12:49 43.22112 27.71853 3087 ft 240 kts 257°
2026-04-21 12:49 43.21684 27.69540 3648 ft 255 kts 256°
2026-04-21 12:49 43.21238 27.67171 4529 ft 258 kts 257°
2026-04-21 12:49 43.20782 27.64791 5463 ft 258 kts 256°
2026-04-21 12:50 43.20326 27.62429 6385 ft 259 kts 257°
2026-04-21 12:50 43.19863 27.60047 7261 ft 259 kts 256°
2026-04-21 12:50 43.19394 27.57651 8132 ft 260 kts 256°
2026-04-21 12:50 43.18926 27.55256 8992 ft 261 kts 256°
2026-04-21 12:51 43.18456 27.52850 9868 ft 261 kts 255°
2026-04-21 12:51 43.17976 27.50401 10415 ft 274 kts 255°
2026-04-21 12:51 43.17469 27.47811 10609 ft 297 kts 255°
2026-04-21 12:51 43.16912 27.44964 10804 ft 319 kts 255°
2026-04-21 12:52 43.16325 27.41981 11354 ft 326 kts 255°
2026-04-21 12:52 43.15728 27.38954 12033 ft 330 kts 256°
2026-04-21 12:52 43.15125 27.35908 12736 ft 333 kts 256°
2026-04-21 12:52 43.14513 27.32827 13444 ft 336 kts 256°
2026-04-21 12:53 43.13907 27.29760 14084 ft 338 kts 256°
2026-04-21 12:53 43.13291 27.26644 14708 ft 340 kts 256°
2026-04-21 12:53 43.12669 27.23502 15326 ft 342 kts 256°
2026-04-21 12:53 43.12039 27.20340 15951 ft 344 kts 256°
2026-04-21 12:54 43.11407 27.17170 16571 ft 346 kts 256°
2026-04-21 12:54 43.10769 27.13984 17174 ft 348 kts 256°
2026-04-21 12:54 43.10136 27.10821 17753 ft 350 kts 256°
2026-04-21 12:54 43.09491 27.07592 18331 ft 352 kts 256°
2026-04-21 12:55 43.08843 27.04350 18826 ft 354 kts 257°
2026-04-21 12:55 43.08189 27.01092 19317 ft 357 kts 257°
2026-04-21 12:55 43.07527 26.97807 19806 ft 359 kts 256°
2026-04-21 12:55 43.06857 26.94489 20287 ft 361 kts 256°
2026-04-21 12:56 43.06185 26.91168 20732 ft 364 kts 256°
2026-04-21 12:56 43.05515 26.87861 21165 ft 366 kts 257°
2026-04-21 12:56 43.04830 26.84484 21625 ft 369 kts 257°
2026-04-21 12:56 43.04139 26.81086 22060 ft 371 kts 257°
2026-04-21 12:57 43.03445 26.77671 22507 ft 374 kts 257°
2026-04-21 12:57 43.02745 26.74225 22930 ft 376 kts 257°
2026-04-21 12:57 43.02050 26.70800 23344 ft 379 kts 257°
2026-04-21 12:57 43.01339 26.67318 23719 ft 382 kts 257°
2026-04-21 12:58 43.00622 26.63812 24069 ft 383 kts 257°
2026-04-21 12:58 42.99900 26.60287 24418 ft 385 kts 256°
2026-04-21 12:58 42.99175 26.56758 24775 ft 386 kts 256°
2026-04-21 12:58 42.98446 26.53216 25140 ft 388 kts 256°
2026-04-21 12:59 42.97714 26.49665 25505 ft 389 kts 256°
2026-04-21 12:59 42.96977 26.46103 25858 ft 391 kts 256°
2026-04-21 12:59 42.96243 26.42570 26206 ft 392 kts 256°
2026-04-21 12:59 42.95496 26.38978 26568 ft 393 kts 256°
2026-04-21 13:00 42.94746 26.35373 26917 ft 395 kts 256°
2026-04-21 13:00 42.93993 26.31762 27226 ft 396 kts 256°
2026-04-21 13:00 42.93237 26.28129 27527 ft 398 kts 256°
2026-04-21 13:00 42.92477 26.24475 27826 ft 399 kts 256°
2026-04-21 13:01 42.91727 26.20870 28128 ft 401 kts 256°
2026-04-21 13:01 42.90960 26.17196 28415 ft 402 kts 256°
2026-04-21 13:01 42.90191 26.13518 28707 ft 403 kts 256°
2026-04-21 13:01 42.89416 26.09830 29007 ft 404 kts 256°
2026-04-21 13:02 42.88638 26.06139 29444 ft 403 kts 256°
2026-04-21 13:02 42.87864 26.02478 29912 ft 401 kts 256°
2026-04-21 13:02 42.86328 25.95232 30626 ft 399 kts 256°
2026-04-21 13:03 42.85559 25.91596 30946 ft 399 kts 257°
2026-04-21 13:03 42.84790 25.87957 31242 ft 399 kts 257°
2026-04-21 13:03 42.84018 25.84325 31527 ft 399 kts 257°
2026-04-21 13:03 42.83242 25.80692 31831 ft 399 kts 257°
2026-04-21 13:04 42.82724 25.78276 31996 ft 399 kts 257°
2026-04-21 13:04 42.81945 25.74634 32259 ft 400 kts 257°
2026-04-21 13:04 42.80915 25.69817 32619 ft 400 kts 257°
2026-04-21 13:04 42.80388 25.67352 32809 ft 401 kts 257°
2026-04-21 13:05 42.79353 25.62533 33167 ft 401 kts 257°
2026-04-21 13:05 42.78827 25.60100 33362 ft 401 kts 257°
2026-04-21 13:05 42.78036 25.56438 33635 ft 401 kts 257°
2026-04-21 13:05 42.77253 25.52802 33897 ft 402 kts 257°
2026-04-21 13:06 42.75670 25.45481 33990 ft 404 kts 257°
2026-04-21 13:06 42.74083 25.38182 33992 ft 405 kts 257°
2026-04-21 13:07 42.72479 25.30824 33985 ft 405 kts 257°
2026-04-21 13:07 42.70881 25.23505 33988 ft 405 kts 257°
2026-04-21 13:08 42.69263 25.16138 33987 ft 406 kts 257°
2026-04-21 13:08 42.67643 25.08770 33978 ft 406 kts 257°
2026-04-21 13:09 42.66026 25.01463 33981 ft 406 kts 257°
2026-04-21 13:09 42.64388 24.94097 33976 ft 406 kts 256°
2026-04-21 13:10 42.62752 24.86740 33965 ft 407 kts 256°
2026-04-21 13:10 42.61112 24.79390 33960 ft 407 kts 256°
2026-04-21 13:11 42.59475 24.72069 33957 ft 407 kts 256°
2026-04-21 13:11 42.57818 24.64713 33952 ft 407 kts 256°
2026-04-21 13:12 42.56150 24.57329 33948 ft 408 kts 256°
2026-04-21 13:12 42.54493 24.49998 33948 ft 409 kts 256°
2026-04-21 13:13 42.52819 24.42601 33950 ft 410 kts 256°
2026-04-21 13:13 42.51132 24.35199 33950 ft 410 kts 256°
2026-04-21 13:14 42.49450 24.27839 33958 ft 410 kts 256°
2026-04-21 13:14 42.47755 24.20437 33961 ft 411 kts 255°
2026-04-21 13:15 42.46064 24.13089 33965 ft 411 kts 255°
2026-04-21 13:15 42.44355 24.05693 33969 ft 411 kts 255°
2026-04-21 13:16 42.42652 23.98338 33971 ft 411 kts 255°
2026-04-21 13:16 42.40937 23.90955 33977 ft 411 kts 255°
2026-04-21 13:17 42.39211 23.83565 33979 ft 411 kts 255°
2026-04-21 13:17 42.37497 23.76226 33984 ft 411 kts 255°
2026-04-21 13:18 42.35772 23.68862 33978 ft 410 kts 255°
2026-04-21 13:18 42.34046 23.61539 33992 ft 410 kts 255°
2026-04-21 13:19 42.32305 23.54176 34000 ft 410 kts 255°
2026-04-21 13:19 42.30574 23.46882 34000 ft 409 kts 255°
2026-04-21 13:20 42.28834 23.39576 33998 ft 408 kts 255°
2026-04-21 13:20 42.27095 23.32290 34004 ft 407 kts 255°
2026-04-21 13:21 42.25366 23.25052 34004 ft 406 kts 255°
2026-04-21 13:21 42.23628 23.17808 34012 ft 405 kts 255°
2026-04-21 13:22 42.21882 23.10566 34004 ft 404 kts 255°
2026-04-21 13:22 42.20138 23.03349 33999 ft 403 kts 255°
2026-04-21 13:23 42.18406 22.96208 33995 ft 403 kts 255°
2026-04-21 13:23 42.16658 22.89014 33989 ft 403 kts 255°
2026-04-21 13:24 42.14921 22.81859 33983 ft 403 kts 255°
2026-04-21 13:24 42.13166 22.74685 33978 ft 403 kts 255°
2026-04-21 13:25 42.11398 22.67495 33979 ft 403 kts 255°
2026-04-21 13:25 42.09629 22.60307 33964 ft 404 kts 255°
2026-04-21 13:26 42.07828 22.53177 33972 ft 404 kts 255°
2026-04-21 13:26 42.05980 22.46023 33960 ft 404 kts 254°
2026-04-21 13:27 42.04122 22.38866 33956 ft 404 kts 254°
2026-04-21 13:27 42.02285 22.31753 33954 ft 405 kts 254°
2026-04-21 13:28 42.00434 22.24582 33955 ft 405 kts 254°
2026-04-21 13:28 41.98569 22.17414 33954 ft 405 kts 254°
2026-04-21 13:29 41.96713 22.10291 33958 ft 406 kts 254°
2026-04-21 13:29 41.94845 22.03124 33960 ft 406 kts 254°
2026-04-21 13:30 41.92981 21.95992 33964 ft 407 kts 254°
2026-04-21 13:30 41.91097 21.88812 33972 ft 407 kts 254°
2026-04-21 13:31 41.89207 21.81628 33976 ft 408 kts 253°
2026-04-21 13:31 41.87315 21.74476 33979 ft 408 kts 253°
2026-04-21 13:32 41.85405 21.67285 33978 ft 409 kts 253°
2026-04-21 13:32 41.83497 21.60127 33978 ft 409 kts 253°
2026-04-21 13:33 41.81573 21.52919 33979 ft 409 kts 253°
2026-04-21 13:33 41.79666 21.45761 33974 ft 410 kts 253°
2026-04-21 13:34 41.77733 21.38550 33970 ft 410 kts 253°
2026-04-21 13:34 41.75807 21.31399 33967 ft 410 kts 253°
2026-04-21 13:35 41.73870 21.24199 33959 ft 410 kts 253°
2026-04-21 13:35 41.71931 21.17016 33956 ft 410 kts 253°
2026-04-21 13:36 41.69995 21.09896 33953 ft 409 kts 253°
2026-04-21 13:36 41.68038 21.02726 33951 ft 409 kts 253°
2026-04-21 13:37 41.66088 20.95572 33954 ft 409 kts 253°
2026-04-21 13:37 41.64144 20.88461 33955 ft 409 kts 253°
2026-04-21 13:38 41.62179 20.81313 33957 ft 408 kts 253°
2026-04-21 13:38 41.60233 20.74241 33959 ft 407 kts 253°
2026-04-21 13:39 41.58275 20.67147 33958 ft 407 kts 253°
2026-04-21 13:39 41.56308 20.60045 33958 ft 407 kts 253°
2026-04-21 13:40 41.54344 20.52965 33958 ft 406 kts 253°
2026-04-21 13:40 41.52624 20.45864 33962 ft 401 kts 263°
2026-04-21 13:41 41.52343 20.38488 33963 ft 398 kts 271°
2026-04-21 13:41 41.52345 20.31084 33967 ft 397 kts 271°
2026-04-21 13:42 41.52340 20.23702 33963 ft 397 kts 271°
2026-04-21 13:42 41.52332 20.16328 33968 ft 397 kts 271°
2026-04-21 13:43 41.52322 20.08941 33971 ft 397 kts 271°
2026-04-21 13:43 41.52307 20.01618 33973 ft 397 kts 271°
2026-04-21 13:44 41.52287 19.94234 33973 ft 397 kts 271°
2026-04-21 13:44 41.52260 19.86875 33972 ft 397 kts 271°
2026-04-21 13:45 41.52223 19.79558 33976 ft 396 kts 271°
2026-04-21 13:45 41.52189 19.72189 33971 ft 396 kts 271°
2026-04-21 13:46 41.52154 19.64823 33970 ft 397 kts 271°
2026-04-21 13:46 41.52117 19.57450 33965 ft 397 kts 271°
2026-04-21 13:47 41.52065 19.50116 33958 ft 397 kts 271°
2026-04-21 13:47 41.52005 19.42733 33952 ft 398 kts 271°
2026-04-21 13:48 41.51944 19.35337 33945 ft 398 kts 271°
2026-04-21 13:48 41.51883 19.27974 33941 ft 399 kts 271°
2026-04-21 13:49 41.51817 19.20556 33942 ft 400 kts 271°
2026-04-21 13:49 41.51748 19.13111 33941 ft 400 kts 271°
2026-04-21 13:50 41.51669 19.05719 33941 ft 401 kts 271°
2026-04-21 13:50 41.51579 18.98269 33937 ft 401 kts 271°
2026-04-21 13:51 41.51490 18.90860 33937 ft 402 kts 271°
2026-04-21 13:51 41.51399 18.83380 33936 ft 402 kts 271°
2026-04-21 13:52 41.51302 18.75905 33937 ft 403 kts 271°
2026-04-21 13:52 41.51199 18.68474 33723 ft 403 kts 271°
2026-04-21 13:53 41.51142 18.64692 32509 ft 411 kts 271°
2026-04-21 13:53 41.51086 18.60844 31502 ft 416 kts 271°
2026-04-21 13:53 41.51030 18.57017 31197 ft 410 kts 271°
2026-04-21 13:53 41.50973 18.53211 30940 ft 408 kts 271°
2026-04-21 13:54 41.50936 18.50704 30783 ft 408 kts 271°
2026-04-21 13:54 41.50875 18.46930 30531 ft 407 kts 271°
2026-04-21 13:54 41.50559 18.43163 30285 ft 412 kts 259°
2026-04-21 13:54 41.49318 18.38338 29959 ft 416 kts 255°
2026-04-21 13:55 41.48326 18.34703 29664 ft 417 kts 255°
2026-04-21 13:55 41.47325 18.31075 29377 ft 418 kts 255°
2026-04-21 13:55 41.46640 18.28614 29190 ft 418 kts 255°
2026-04-21 13:55 41.45637 18.25028 28811 ft 419 kts 254°
2026-04-21 13:56 41.44615 18.21375 27695 ft 422 kts 254°
2026-04-21 13:56 41.43590 18.17709 27100 ft 415 kts 254°
2026-04-21 13:56 41.42600 18.14174 26466 ft 409 kts 254°
2026-04-21 13:56 41.41613 18.10644 25828 ft 404 kts 254°
2026-04-21 13:57 41.40634 18.07159 25230 ft 400 kts 254°
2026-04-21 13:57 41.39662 18.03697 24614 ft 395 kts 254°
2026-04-21 13:57 41.38704 18.00284 24007 ft 392 kts 254°
2026-04-21 13:57 41.37754 17.96897 23397 ft 388 kts 254°
2026-04-21 13:58 41.36810 17.93536 22766 ft 384 kts 253°
2026-04-21 13:58 41.35879 17.90229 22226 ft 378 kts 253°
2026-04-21 13:58 41.34969 17.87004 21687 ft 374 kts 253°
2026-04-21 13:58 41.34055 17.83777 21171 ft 368 kts 253°
2026-04-21 13:59 41.33154 17.80605 20676 ft 364 kts 253°
2026-04-21 13:59 41.32269 17.77469 20186 ft 359 kts 253°
2026-04-21 13:59 41.31379 17.74310 19728 ft 370 kts 253°
2026-04-21 13:59 41.30498 17.71181 19271 ft 365 kts 253°
2026-04-21 14:00 41.29602 17.68022 18806 ft 361 kts 253°
2026-04-21 14:00 41.28717 17.64912 18378 ft 356 kts 253°
2026-04-21 14:00 41.27844 17.61852 17921 ft 352 kts 253°
2026-04-21 14:00 41.26983 17.58839 17475 ft 347 kts 253°
2026-04-21 14:01 41.26128 17.55854 17044 ft 342 kts 253°
2026-04-21 14:01 41.25287 17.52913 16620 ft 338 kts 253°
2026-04-21 14:01 41.24454 17.49999 16192 ft 336 kts 252°
2026-04-21 14:01 41.23622 17.47082 15436 ft 342 kts 252°
2026-04-21 14:02 41.22779 17.44109 14545 ft 352 kts 252°
2026-04-21 14:02 41.21897 17.41008 13634 ft 368 kts 252°
2026-04-21 14:02 41.20972 17.37748 12568 ft 379 kts 251°
2026-04-21 14:03 41.19105 17.31223 11088 ft 374 kts 251°
2026-04-21 14:03 41.18186 17.28023 10587 ft 367 kts 251°
2026-04-21 14:03 41.17279 17.24850 10435 ft 369 kts 251°
2026-04-21 14:03 41.16370 17.21669 10274 ft 368 kts 251°
2026-04-21 14:04 41.15459 17.18490 10122 ft 368 kts 251°
2026-04-21 14:04 41.14550 17.15320 9943 ft 367 kts 251°
2026-04-21 14:04 41.13641 17.12159 9392 ft 367 kts 250°
2026-04-21 14:04 41.12734 17.09009 8786 ft 362 kts 250°
2026-04-21 14:05 41.11852 17.05945 8226 ft 360 kts 250°
2026-04-21 14:05 41.10970 17.02889 7667 ft 358 kts 250°
2026-04-21 14:05 41.10080 16.99810 7111 ft 356 kts 250°
2026-04-21 14:05 41.09198 16.96757 6561 ft 355 kts 250°
2026-04-21 14:06 41.08316 16.93706 5983 ft 353 kts 249°
2026-04-21 14:06 41.07460 16.90743 5524 ft 330 kts 249°
2026-04-21 14:06 41.06667 16.88008 5055 ft 307 kts 249°
2026-04-21 14:06 41.05922 16.85437 4730 ft 285 kts 249°
2026-04-21 14:07 41.05241 16.83095 4593 ft 259 kts 249°
2026-04-21 14:07 41.04618 16.80957 4400 ft 239 kts 250°
2026-04-21 14:07 41.04029 16.78941 3867 ft 236 kts 250°
2026-04-21 14:07 41.03441 16.76923 3387 ft 233 kts 250°
2026-04-21 14:08 41.02858 16.74923 2925 ft 231 kts 250°
2026-04-21 14:08 41.02307 16.73015 2927 ft 214 kts 251°
2026-04-21 14:08 41.01969 16.71153 2665 ft 202 kts 270°
2026-04-21 14:08 41.02285 16.69441 2469 ft 189 kts 305°
2026-04-21 14:09 41.03308 16.68465 2453 ft 184 kts 348°
2026-04-21 14:09 41.04592 16.68317 2242 ft 186 kts 357°
2026-04-21 14:09 41.05874 16.68245 2022 ft 184 kts 359°
2026-04-21 14:09 41.07112 16.68215 1809 ft 175 kts
2026-04-21 14:10 41.08282 16.68238 1647 ft 159 kts
2026-04-21 14:10 41.09321 16.68375 1638 ft 144 kts 10°
2026-04-21 14:10 41.10288 16.68657 1530 ft 139 kts 19°
2026-04-21 14:10 41.11161 16.69187 1396 ft 139 kts 31°
2026-04-21 14:11 41.11892 16.70000 1233 ft 138 kts 48°
2026-04-21 14:11 41.12432 16.71049 1021 ft 137 kts 63°
2026-04-21 14:11 41.12792 16.72205 781 ft 139 kts 70°
2026-04-21 14:11 41.13113 16.73393 511 ft 137 kts 71°
2026-04-21 14:12 41.13436 16.74567 261 ft 135 kts 71°
2026-04-21 14:12 41.13746 16.75677 169 ft 117 kts 70°
2026-04-21 14:12 41.13961 16.76442 140 ft 41 kts 70°
2026-04-21 14:12 41.13992 16.76646 135 ft 17 kts 116°
2026-04-21 14:13 41.13926 16.76709 134 ft 7 kts 215°
2026-04-21 14:13 41.13873 16.76658 135 ft 11 kts 216°
2026-04-21 14:13 41.13823 16.76602 137 ft 10 kts 231°
2026-04-21 14:13 41.13782 16.76557 139 ft 9 kts 199°
2026-04-21 14:14 41.13734 16.76594 138 ft 9 kts 110°
2026-04-21 14:14 41.13740 16.76686 137 ft 10 kts 114°
2026-04-21 14:14 41.13696 16.76715 138 ft 5 kts 159°
2026-04-21 14:14 41.13683 16.76712 138 ft 0 kts 204°
2026-04-21 14:15 41.13675 16.76707 139 ft 1 kts 205°
2026-04-21 14:15 41.13673 16.76705 139 ft 0 kts 205°
2026-04-21 14:17 41.13673 16.76706 139 ft 0 kts 205°
2026-04-21 14:24 41.13674 16.76706 139 ft 0 kts 205°